TimeEST,TemperatureF,Dew PointF,Humidity,Sea Level PressureIn,VisibilityMPH,Wind Direction,Wind SpeedMPH,Gust SpeedMPH,PrecipitationIn,Events,Conditions,WindDirDegrees,DateUTC
12:53 AM,36.0,21.0,55,30.28,10.0,Calm,Calm,-,N/A,,Clear,0,2013-01-05 05:53:00
1:53 AM,30.0,24.1,79,30.30,10.0,Calm,Calm,-,N/A,,Clear,0,2013-01-05 06:53:00
2:53 AM,27.0,23.0,85,30.30,10.0,WSW,3.5,-,N/A,,Clear,250,2013-01-05 07:53:00
3:53 AM,28.0,24.1,85,30.31,10.0,West,3.5,-,N/A,,Clear,270,2013-01-05 08:53:00
4:53 AM,28.9,21.9,75,30.31,10.0,West,4.6,-,N/A,,Clear,270,2013-01-05 09:53:00
6:53 AM,28.0,21.0,75,30.33,10.0,Calm,Calm,-,N/A,,Clear,0,2013-01-05 11:53:00
7:53 AM,28.0,24.1,85,30.35,10.0,Calm,Calm,-,N/A,,Clear,0,2013-01-05 12:53:00
8:53 AM,37.9,24.1,57,30.38,10.0,Variable,3.5,-,N/A,,Clear,0,2013-01-05 13:53:00
9:53 AM,43.0,21.9,43,30.39,10.0,NW,6.9,-,N/A,,Clear,320,2013-01-05 14:53:00
10:53 AM,46.0,21.0,37,30.39,10.0,NNE,6.9,-,N/A,,Clear,30,2013-01-05 15:53:00
11:53 AM,48.0,21.0,34,30.36,10.0,NNW,4.6,-,N/A,,Clear,340,2013-01-05 16:53:00
12:53 PM,48.9,21.0,33,30.32,10.0,NE,3.5,-,N/A,,Clear,50,2013-01-05 17:53:00
1:53 PM,50.0,21.0,32,30.29,10.0,WSW,4.6,-,N/A,,Clear,250,2013-01-05 18:53:00
2:53 PM,52.0,19.9,28,30.30,10.0,Calm,Calm,-,N/A,,Clear,0,2013-01-05 19:53:00
3:53 PM,51.1,21.0,31,30.29,10.0,SW,3.5,-,N/A,,Clear,220,2013-01-05 20:53:00
4:53 PM,50.0,21.0,32,30.30,10.0,SSW,3.5,-,N/A,,Clear,210,2013-01-05 21:53:00
5:53 PM,44.1,26.1,49,30.30,10.0,Calm,Calm,-,N/A,,Clear,0,2013-01-05 22:53:00
6:53 PM,43.0,28.0,56,30.29,10.0,South,6.9,-,N/A,,Clear,170,2013-01-05 23:53:00
7:53 PM,41.0,28.0,60,30.29,10.0,South,6.9,-,N/A,,Clear,180,2013-01-06 00:53:00
8:53 PM,39.9,28.0,63,30.29,10.0,SSW,4.6,-,N/A,,Clear,210,2013-01-06 01:53:00
9:53 PM,41.0,28.9,62,30.30,10.0,SSW,4.6,-,N/A,,Clear,210,2013-01-06 02:53:00
10:53 PM,41.0,28.0,60,30.28,10.0,SW,4.6,-,N/A,,Clear,220,2013-01-06 03:53:00
11:53 PM,42.1,28.9,60,30.27,10.0,South,3.5,-,N/A,,Clear,190,2013-01-06 04:53:00